Notices

What's New in latest Release from April 7th, 2021:

- Updated Glossary, including Speed of Maximum Gust, and Total Hourly Precipitation

- Updated national and regional climate services offices contacts and prices information

- Addition of station inventory lists for 1981-2010, 1971-2000, and 1961-1990 Normals.

Please note that as of June 10, 2021 UTC dates are available for all years 2004-present, and DBA is working on populating the remaining years (2003 to 1953).

If you haven't already, please take our survey and provide feedback about our website: https://eccc.sondage-survey.ca/f/LanguageSelection.aspx?s=442ca660-fcf1-47c0-95a9-59707d6fd709

Hourly Data Report for November 07, 2016

VICTORIA UNIVERSITY CS
BRITISH COLUMBIA

48°27'25.200" N
123°18'16.600" W
60.10 m
1018598
71783
WYJ

Download Data

Hourly Data (November 2016)
Hourly Data Report for November 7, 2016
TIME
LST
Temp Definition
°C
Dew Point Definition
°C
Rel Hum Definition
%
Precip. Amount Definition
mm

Wind Dir Definition
10's deg

Wind Spd Definition
km/h
Visibility Definition
km
Stn Press Definition
kPa
Hmdx Definition


Wind Chill Definition


Weather Definition


00:00 11.0 9.6 91 0.0 13 2   100.76     LegendNANA
01:00 10.4 9.5 94 0.2 0 1   100.74     LegendNANA
02:00 11.3 9.6 89 0.0 13 3   100.69     LegendNANA
03:00 11.3 9.7 90 0.0 15 8   100.74     LegendNANA
04:00 11.4 9.7 89 0.0 15 4   100.77     LegendNANA
05:00 11.2 9.9 92 0.0 14 6   100.82     LegendNANA
06:00 11.5 10.0 90 0.0 14 5   100.83     LegendNANA
07:00 11.2 10.1 93 0.3 12 4   100.88     LegendNANA
08:00 11.4 9.9 91 0.0 13 5   100.94     LegendNANA
09:00 11.6 9.9 90 0.0 13 4   100.98     LegendNANA
10:00 12.5 9.9 84 0.0 14 4   101.08     LegendNANA
11:00 13.2 10.1 82 0.0 9 5   101.07     LegendNANA
12:00 13.7 9.5 76 0.0 8 6   101.05     LegendNANA
13:00 12.6 9.9 83 0.0 10 1   101.08     LegendNANA
14:00 12.8 9.8 82 0.0 12 2   101.11     LegendNANA
15:00 13.0 9.7 80 0.0 2 9   100.99     LegendNANA
16:00 12.5 9.5 82 0.0 1 11   100.98     LegendNANA
17:00 11.9 9.8 87 0.0 36 7   100.96     LegendNANA
18:00 12.0 9.6 85 0.0 36 9   100.93     LegendNANA
19:00 12.1 9.8 86 0.0 34 6   100.96     LegendNANA
20:00 12.8 9.7 81 0.0 3 5   100.93     LegendNANA
21:00 12.6 9.8 83 0.0 4 3   100.93     LegendNANA
22:00 12.6 9.8 83 0.0 9 4   100.89     LegendNANA
23:00 12.8 9.9 83 0.0 9 4   100.84     LegendNANA

Notes on Data Quality.

Legend

  • E = Estimated
  • M = Missing
  • NA = Not Available*
  • [empty] = Indicates an unobserved value
Date modified: